| time (UTC) | temp F | wind direction | speed knots | gust knots | rain 1hr in | rain 24hr in | rain mn in | humidity % | barometer mb |
| 20260506011535 | 47 | 343 | 7.8 | 13.0 | 0.00 | 0.00 | 0.00 | 43 | 1012.5 |
| 20260506010046 | 48 | 327 | 6.1 | 11.3 | 0.00 | 0.00 | 0.00 | 42 | 1012.4 |
| 20260506004531 | 48 | 323 | 7.0 | 10.4 | 0.00 | 0.00 | 0.00 | 42 | 1012.3 |
| 20260506003033 | 48 | 329 | 9.6 | 14.8 | 0.00 | 0.00 | 0.00 | 42 | 1012.2 |
| 20260506001531 | 49 | 338 | 9.6 | 12.2 | 0.00 | 0.00 | 0.00 | 41 | 1012.0 |
| 20260506000030 | 49 | 325 | 7.8 | 11.3 | 0.00 | 0.00 | 0.00 | 40 | 1012.0 |
| 20260505234549 | 49 | 328 | 7.0 | 9.6 | 0.00 | 0.00 | 0.00 | 40 | 1011.9 |
| 20260505233036 | 49 | 337 | 7.0 | 11.3 | 0.00 | 0.00 | 0.00 | 39 | 1011.9 |
| 20260505231532 | 50 | 331 | 7.8 | 12.2 | 0.00 | 0.00 | 0.00 | 40 | 1011.9 |
| 20260505230028 | 49 | 324 | 6.1 | 12.2 | 0.00 | 0.00 | 0.00 | 39 | 1011.9 |
| 20260505224532 | 50 | 336 | 7.0 | 13.0 | 0.00 | 0.00 | 0.00 | 40 | 1011.8 |
| 20260505223027 | 50 | 333 | 9.6 | 13.0 | 0.00 | 0.00 | 0.00 | 39 | 1011.8 |
| 20260505221527 | 50 | 330 | 7.8 | 13.9 | 0.00 | 0.00 | 0.00 | 39 | 1011.9 |
| 20260505220026 | 51 | 318 | 8.7 | 13.0 | 0.00 | 0.00 | 0.00 | 38 | 1011.8 |
| 20260505214549 | 50 | 303 | 7.0 | 14.8 | 0.00 | 0.00 | 0.00 | 38 | 1011.9 |
| 20260505213023 | 50 | 328 | 6.1 | 12.2 | 0.00 | 0.00 | 0.00 | 39 | 1011.8 |
| 20260505211522 | 51 | 343 | 7.8 | 13.9 | 0.00 | 0.00 | 0.00 | 40 | 1011.9 |
| 20260505210021 | 49 | 306 | 6.1 | 12.2 | 0.00 | 0.00 | 0.00 | 39 | 1011.9 |
| 20260505204521 | 50 | 325 | 6.1 | 12.2 | 0.00 | 0.00 | 0.00 | 40 | 1011.9 |
| 20260505203032 | 49 | 313 | 5.2 | 13.0 | 0.00 | 0.00 | 0.00 | 42 | 1012.1 |
| 20260505201525 | 50 | 327 | 8.7 | 14.8 | 0.00 | 0.00 | 0.00 | 41 | 1012.1 |
| 20260505200017 | 50 | 295 | 3.5 | 13.0 | 0.00 | 0.00 | 0.00 | 41 | 1012.1 |
| 20260505194515 | 50 | 323 | 9.6 | 15.6 | 0.00 | 0.00 | 0.00 | 43 | 1012.1 |
| 20260505193014 | 49 | 344 | 7.8 | 11.3 | 0.00 | 0.00 | 0.00 | 42 | 1012.0 |
| 20260505191514 | 50 | 318 | 7.8 | 11.3 | 0.00 | 0.00 | 0.00 | 42 | 1012.0 |
| 20260505190012 | 49 | 350 | 7.8 | 13.0 | 0.00 | 0.00 | 0.00 | 43 | 1012.1 |
| 20260505184511 | 49 | 293 | 6.1 | 11.3 | 0.00 | 0.00 | 0.00 | 42 | 1012.1 |
| 20260505183015 | 49 | 328 | 8.7 | 12.2 | 0.00 | 0.00 | 0.00 | 44 | 1012.2 |
| 20260505181509 | 49 | 278 | 6.1 | 8.7 | 0.00 | 0.00 | 0.00 | 44 | 1012.2 |
| 20260505180007 | 47 | 323 | 6.1 | 9.6 | 0.00 | 0.00 | 0.00 | 46 | 1012.2 |
| 20260505174508 | 47 | 313 | 5.2 | 10.4 | 0.00 | 0.00 | 0.00 | 47 | 1012.3 |
| 20260505173004 | 47 | 328 | 4.3 | 9.6 | 0.00 | 0.00 | 0.00 | 48 | 1012.2 |
| 20260505171503 | 47 | 298 | 6.1 | 8.7 | 0.00 | 0.00 | 0.00 | 47 | 1012.2 |
| 20260505170001 | 47 | 307 | 3.5 | 7.8 | 0.00 | 0.00 | 0.00 | 49 | 1012.0 |
| 20260505164501 | 47 | 315 | 5.2 | 8.7 | 0.00 | 0.00 | 0.00 | 48 | 1012.1 |
| 20260505163100 | 47 | 291 | 4.3 | 7.8 | 0.00 | 0.00 | 0.00 | 50 | 1012.1 |
| 20260505161619 | 46 | 293 | 4.3 | 8.7 | 0.00 | 0.00 | 0.00 | 51 | 1012.2 |
| 20260505160104 | 46 | 333 | 6.1 | 9.6 | 0.00 | 0.00 | 0.00 | 52 | 1012.2 |
| 20260505153054 | 46 | 313 | 2.6 | 8.7 | 0.00 | 0.00 | 0.00 | 52 | 1012.1 |
| 20260505151551 | 45 | 336 | 3.5 | 7.8 | 0.00 | 0.00 | 0.00 | 53 | 1012.1 |
| 20260505124538 | 39 | 290 | 2.6 | 3.5 | 0.00 | 0.00 | 0.00 | 69 | 1011.0 |
| 20260505123034 | 37 | 287 | 1.7 | 3.5 | 0.00 | 0.00 | 0.00 | 71 | 1010.9 |
| 20260505121534 | 36 | 285 | 0.9 | 2.6 | 0.00 | 0.00 | 0.00 | 72 | 1010.8 |
| 20260505120033 | 35 | 285 | 0.9 | 2.6 | 0.00 | 0.00 | 0.00 | 73 | 1010.7 |
| 20260505114530 | 35 | 317 | 0.9 | 2.6 | 0.00 | 0.00 | 0.00 | 72 | 1010.4 |
| 20260505113026 | 35 | 323 | 0.9 | 2.6 | 0.00 | 0.00 | 0.00 | 72 | 1010.1 |
| 20260505111524 | 36 | 326 | 1.7 | 2.6 | 0.00 | 0.00 | 0.00 | 71 | 1009.9 |
| 20260505101529 | 37 | 323 | 2.6 | 4.3 | 0.00 | 0.00 | 0.00 | 68 | 1008.8 |
| 20260505100021 | 37 | 319 | 3.5 | 4.3 | 0.00 | 0.00 | 0.00 | 68 | 1008.7 |
| 20260505094510 | 37 | 309 | 2.6 | 3.5 | 0.00 | 0.00 | 0.00 | 67 | 1008.7 |
| 20260505093021 | 37 | 307 | 2.6 | 3.5 | 0.00 | 0.00 | 0.00 | 67 | 1008.8 |
| 20260505091507 | 38 | 300 | 2.6 | 3.5 | 0.00 | 0.00 | 0.00 | 66 | 1008.7 |
| 20260505090003 | 38 | 301 | 2.6 | 3.5 | 0.00 | 0.00 | 0.00 | 65 | 1008.6 |
| 20260505084501 | 39 | 302 | 2.6 | 3.5 | 0.00 | 0.00 | 0.00 | 65 | 1008.5 |
| 20260505083104 | 39 | 318 | 1.7 | 3.5 | 0.00 | 0.00 | 0.00 | 64 | 1008.4 |
| 20260505081602 | 40 | 320 | 2.6 | 3.5 | 0.00 | 0.00 | 0.00 | 63 | 1008.1 |
| 20260505080107 | 40 | 323 | 3.5 | 4.3 | 0.00 | 0.00 | 0.00 | 61 | 1008.0 |
| 20260505074549 | 41 | 325 | 3.5 | 4.3 | 0.00 | 0.00 | 0.00 | 60 | 1007.7 |
| 20260505073049 | 42 | 331 | 4.3 | 7.0 | 0.00 | 0.00 | 0.00 | 59 | 1007.9 |
| 20260505071554 | 42 | 330 | 5.2 | 7.8 | 0.00 | 0.00 | 0.00 | 58 | 1007.6 |
| 20260505070048 | 43 | 334 | 6.1 | 8.7 | 0.00 | 0.00 | 0.00 | 57 | 1007.4 |
| 20260505064543 | 43 | 328 | 4.3 | 8.7 | 0.00 | 0.00 | 0.00 | 57 | 1007.6 |
| 20260505063100 | 43 | 333 | 6.1 | 8.7 | 0.00 | 0.00 | 0.00 | 57 | 1007.8 |
| 20260505061605 | 43 | 329 | 6.1 | 8.7 | 0.00 | 0.00 | 0.00 | 55 | 1007.6 |
| 20260505060037 | 43 | 334 | 3.5 | 6.1 | 0.00 | 0.00 | 0.00 | 56 | 1007.7 |
| 20260505054535 | 42 | 336 | 3.5 | 5.2 | 0.00 | 0.00 | 0.00 | 57 | 1007.7 |
| 20260505053039 | 43 | 303 | 1.7 | 3.5 | 0.00 | 0.00 | 0.00 | 55 | 1007.6 |
| 20260505051552 | 43 | 303 | 2.6 | 3.5 | 0.00 | 0.00 | 0.00 | 54 | 1007.4 |
| 20260505041527 | 44 | 330 | 2.6 | 5.2 | 0.00 | 0.00 | 0.00 | 53 | 1007.6 |
| 20260505040024 | 45 | 333 | 4.3 | 6.1 | 0.00 | 0.00 | 0.00 | 52 | 1007.5 |
| 20260505034517 | 45 | 335 | 3.5 | 6.1 | 0.00 | 0.00 | 0.00 | 52 | 1007.6 |
| 20260505033018 | 46 | 336 | 4.3 | 7.0 | 0.00 | 0.00 | 0.00 | 52 | 1007.6 |
| 20260505031517 | 46 | 338 | 6.1 | 8.7 | 0.00 | 0.00 | 0.00 | 51 | 1007.4 |
| 20260505030012 | 47 | 344 | 8.7 | 12.2 | 0.00 | 0.00 | 0.00 | 50 | 1007.3 |
| 20260505024511 | 48 | 335 | 10.4 | 14.8 | 0.00 | 0.00 | 0.00 | 50 | 1007.2 |
| 20260505023005 | 48 | 339 | 10.4 | 15.6 | 0.00 | 0.00 | 0.00 | 50 | 1006.8 |
| 20260505021503 | 49 | 322 | 12.2 | 15.6 | 0.00 | 0.00 | 0.00 | 49 | 1006.4 |
| 20260505020105 | 50 | 331 | 10.4 | 15.6 | 0.00 | 0.00 | 0.00 | 47 | 1006.1 |
| 20260505014556 | 50 | 328 | 9.6 | 14.8 | 0.00 | 0.00 | 0.00 | 46 | 1005.7 |
| 20260505013100 | 51 | 332 | 9.6 | 16.5 | 0.00 | 0.00 | 0.00 | 46 | 1005.4 |